• Em Portugal
  • Lista de países
  • Para 7 dias
  • Temperatura da água
  • Mapas de satélite
  • Mapa do tempo
  • Widgets de tempo
  • user-avatar
    Iniciar Sessão

    Previsão horária em Sacapa

    Hoje, 20 Fevereiro, Terça-feira

    Tempo Temperatura Precipitação Vento Pressão Humidade
    00:00 +18°C° 0 mm 0 m/s 698 mmHg 95%
    01:00 +18°C° 0 mm 0 m/s 697 mmHg 95%
    02:00 +17°C° 0 mm 0 m/s 697 mmHg 95%
    03:00 +17°C° 0 mm 0 m/s 697 mmHg 94%
    04:00 +17°C° 0 mm 0 m/s 697 mmHg 94%
    05:00 +17°C° 0 mm 0 m/s 697 mmHg 94%
    06:00 +16°C° 0 mm 0 m/s 697 mmHg 94%
    07:00 +19°C° 0 mm 0 m/s 698 mmHg 83%
    08:00 +22°C° 0 mm 0 m/s 699 mmHg 72%
    09:00 +24°C° 0 mm 0 m/s 699 mmHg 61%
    10:00 +28°C° 0 mm 1 m/s 699 mmHg 54%
    11:00 +30°C° 0 mm 1 m/s 699 mmHg 47%
    12:00 +32°C° 0 mm 1 m/s 699 mmHg 40%
    13:00 +31°C° 0 mm 2 m/s 699 mmHg 40%
    14:00 +31°C° 0 mm 2 m/s 698 mmHg 41%
    15:00 +30°C° 0 mm 2 m/s 697 mmHg 42%
    16:00 +29°C° 0 mm 2 m/s 697 mmHg 50%
    17:00 +27°C° 0 mm 2 m/s 697 mmHg 59%
    18:00 +25°C° 0 mm 2 m/s 697 mmHg 67%
    19:00 +23°C° 0 mm 1 m/s 697 mmHg 75%
    20:00 +22°C° 0 mm 1 m/s 698 mmHg 83%
    21:00 +21°C° 0 mm 1 m/s 698 mmHg 91%
    22:00 +20°C° 0 mm 1 m/s 698 mmHg 92%
    23:00 +20°C° 0 mm 1 m/s 698 mmHg 93%

    Amanhã, 21 Fevereiro, Quarta-feira

    Tempo Temperatura Precipitação Vento Pressão Humidade
    00:00 +20°C° 0 mm 1 m/s 699 mmHg 94%
    01:00 +18°C° 0 mm 0 m/s 698 mmHg 94%
    02:00 +18°C° 0 mm 0 m/s 698 mmHg 94%
    03:00 +18°C° 0 mm 0 m/s 698 mmHg 94%
    04:00 +17°C° 0 mm 0 m/s 698 mmHg 94%
    05:00 +17°C° 0 mm 0 m/s 698 mmHg 94%
    06:00 +17°C° 0 mm 0 m/s 698 mmHg 94%
    07:00 +19°C° 0 mm 0 m/s 699 mmHg 84%
    08:00 +23°C° 0 mm 1 m/s 700 mmHg 74%
    09:00 +26°C° 0 mm 1 m/s 701 mmHg 64%
    10:00 +27°C° 0 mm 1 m/s 701 mmHg 56%
    11:00 +29°C° 0 mm 1 m/s 700 mmHg 47%
    12:00 +31°C° 0 mm 2 m/s 700 mmHg 38%
    13:00 +31°C° 0 mm 2 m/s 700 mmHg 39%
    14:00 +31°C° 0 mm 2 m/s 699 mmHg 40%
    15:00 +30°C° 0 mm 3 m/s 698 mmHg 41%
    16:00 +29°C° 0 mm 2 m/s 698 mmHg 50%
    17:00 +27°C° 0 mm 2 m/s 698 mmHg 60%
    18:00 +25°C° 0 mm 2 m/s 698 mmHg 69%
    19:00 +23°C° 0,1 mm 2 m/s 699 mmHg 76%
    20:00 +22°C° 0,1 mm 1 m/s 699 mmHg 83%
    21:00 +21°C° 0,1 mm 1 m/s 700 mmHg 90%
    22:00 +21°C° 0,1 mm 1 m/s 700 mmHg 91%
    23:00 +21°C° 0,1 mm 1 m/s 700 mmHg 92%

    Depois de amanhã, 22 Fevereiro, Quinta-feira

    Tempo Temperatura Precipitação Vento Pressão Humidade
    00:00 +21°C° 0,1 mm 1 m/s 700 mmHg 93%
    01:00 +21°C° 0 mm 1 m/s 699 mmHg 93%
    02:00 +20°C° 0 mm 1 m/s 699 mmHg 93%
    03:00 +20°C° 0 mm 1 m/s 698 mmHg 94%
    04:00 +20°C° 0 mm 1 m/s 698 mmHg 94%
    05:00 +20°C° 0 mm 1 m/s 699 mmHg 94%
    06:00 +20°C° 0 mm 1 m/s 699 mmHg 94%
    07:00 +21°C° 0 mm 1 m/s 700 mmHg 87%
    08:00 +23°C° 0 mm 1 m/s 700 mmHg 79%
    09:00 +25°C° 0 mm 1 m/s 701 mmHg 72%
    10:00 +27°C° 0 mm 1 m/s 701 mmHg 61%
    11:00 +29°C° 0 mm 2 m/s 700 mmHg 50%
    12:00 +31°C° 0 mm 2 m/s 700 mmHg 40%
    13:00 +31°C° 0 mm 2 m/s 699 mmHg 40%
    14:00 +31°C° 0 mm 2 m/s 699 mmHg 41%
    15:00 +30°C° 0 mm 3 m/s 698 mmHg 41%
    16:00 +28°C° 0 mm 2 m/s 698 mmHg 51%
    17:00 +26°C° 0 mm 2 m/s 698 mmHg 61%
    18:00 +24°C° 0 mm 2 m/s 698 mmHg 70%
    19:00 +23°C° 0,1 mm 2 m/s 698 mmHg 77%
    20:00 +22°C° 0,1 mm 1 m/s 699 mmHg 85%
    21:00 +21°C° 0,1 mm 1 m/s 699 mmHg 92%
    22:00 +21°C° 0,1 mm 1 m/s 699 mmHg 92%
    23:00 +21°C° 0,1 mm 1 m/s 699 mmHg 92%

    23 Fevereiro, Sexta-feira

    Tempo Temperatura Precipitação Vento Pressão Humidade
    00:00 +21°C° 0,1 mm 1 m/s 699 mmHg 93%
    01:00 +20°C° 0 mm 1 m/s 699 mmHg 93%
    02:00 +20°C° 0 mm 1 m/s 698 mmHg 93%
    03:00 +20°C° 0 mm 1 m/s 698 mmHg 93%
    04:00 +20°C° 0 mm 1 m/s 698 mmHg 93%
    05:00 +20°C° 0 mm 1 m/s 699 mmHg 93%
    06:00 +19°C° 0 mm 1 m/s 699 mmHg 93%
    07:00 +21°C° 0 mm 1 m/s 699 mmHg 87%
    08:00 +22°C° 0 mm 1 m/s 700 mmHg 80%
    09:00 +24°C° 0 mm 1 m/s 700 mmHg 73%
    10:00 +26°C° 0 mm 1 m/s 700 mmHg 66%
    11:00 +27°C° 0 mm 2 m/s 700 mmHg 58%
    12:00 +29°C° 0 mm 2 m/s 699 mmHg 50%
    13:00 +30°C° 0 mm 2 m/s 699 mmHg 48%
    14:00 +30°C° 0 mm 2 m/s 698 mmHg 46%
    15:00 +30°C° 0 mm 3 m/s 697 mmHg 43%
    16:00 +28°C° 0,1 mm 2 m/s 697 mmHg 53%
    17:00 +26°C° 0,1 mm 2 m/s 697 mmHg 62%
    18:00 +24°C° 0,1 mm 2 m/s 697 mmHg 71%
    19:00 +23°C° 0,1 mm 2 m/s 698 mmHg 78%
    20:00 +22°C° 0,1 mm 1 m/s 698 mmHg 85%
    21:00 +21°C° 0,1 mm 1 m/s 698 mmHg 92%
    22:00 +21°C° 0,1 mm 1 m/s 698 mmHg 92%
    23:00 +20°C° 0,1 mm 1 m/s 698 mmHg 93%

    24 Fevereiro, Sábado

    Tempo Temperatura Precipitação Vento Pressão Humidade
    00:00 +20°C° 0,1 mm 1 m/s 698 mmHg 93%
    01:00 +20°C° 0 mm 1 m/s 698 mmHg 93%
    02:00 +20°C° 0 mm 1 m/s 697 mmHg 93%
    03:00 +19°C° 0 mm 1 m/s 697 mmHg 93%
    04:00 +17°C° 0 mm 0 m/s 697 mmHg 93%
    05:00 +17°C° 0 mm 0 m/s 697 mmHg 93%
    06:00 +17°C° 0 mm 0 m/s 697 mmHg 93%
    07:00 +19°C° 0 mm 0 m/s 698 mmHg 83%
    08:00 +22°C° 0 mm 0 m/s 699 mmHg 74%
    09:00 +24°C° 0 mm 0 m/s 699 mmHg 65%
    10:00 +28°C° 0,1 mm 1 m/s 699 mmHg 58%
    11:00 +29°C° 0,1 mm 1 m/s 699 mmHg 52%
    12:00 +31°C° 0,1 mm 1 m/s 698 mmHg 46%
    13:00 +31°C° 0,4 mm 2 m/s 698 mmHg 47%
    14:00 +31°C° 0,4 mm 2 m/s 697 mmHg 48%
    15:00 +30°C° 0,4 mm 2 m/s 696 mmHg 48%
    16:00 +28°C° 0,6 mm 2 m/s 696 mmHg 57%
    17:00 +26°C° 0,6 mm 1 m/s 696 mmHg 66%
    18:00 +24°C° 0,6 mm 1 m/s 696 mmHg 75%
    19:00 +23°C° 0,5 mm 1 m/s 696 mmHg 81%
    20:00 +22°C° 0,5 mm 1 m/s 697 mmHg 86%
    21:00 +21°C° 0,5 mm 1 m/s 697 mmHg 92%
    22:00 +21°C° 0,2 mm 1 m/s 697 mmHg 93%
    23:00 +20°C° 0,2 mm 1 m/s 697 mmHg 94%

    25 Fevereiro, Domingo

    Tempo Temperatura Precipitação Vento Pressão Humidade
    00:00 +18°C° 0,2 mm 0 m/s 697 mmHg 95%
    01:00 +18°C° 0 mm 0 m/s 697 mmHg 95%
    02:00 +18°C° 0 mm 0 m/s 696 mmHg 95%
    03:00 +18°C° 0 mm 0 m/s 696 mmHg 95%
    04:00 +17°C° 0 mm 0 m/s 697 mmHg 95%
    05:00 +17°C° 0 mm 0 m/s 697 mmHg 95%
    06:00 +17°C° 0 mm 0 m/s 697 mmHg 95%
    07:00 +20°C° 0 mm 0 m/s 698 mmHg 84%
    08:00 +22°C° 0 mm 0 m/s 698 mmHg 74%
    09:00 +25°C° 0 mm 0 m/s 699 mmHg 63%
    10:00 +27°C° 0,2 mm 0 m/s 699 mmHg 56%
    11:00 +30°C° 0,2 mm 1 m/s 699 mmHg 49%
    12:00 +32°C° 0,2 mm 1 m/s 698 mmHg 42%
    13:00 +32°C° 0,2 mm 1 m/s 698 mmHg 42%
    14:00 +31°C° 0,2 mm 2 m/s 697 mmHg 42%
    15:00 +31°C° 0,2 mm 2 m/s 696 mmHg 41%
    16:00 +29°C° 0,3 mm 2 m/s 696 mmHg 51%
    17:00 +26°C° 0,3 mm 2 m/s 696 mmHg 61%
    18:00 +24°C° 0,3 mm 1 m/s 696 mmHg 71%
    19:00 +23°C° 0,2 mm 1 m/s 697 mmHg 78%
    20:00 +22°C° 0,2 mm 1 m/s 697 mmHg 85%
    21:00 +20°C° 0,2 mm 1 m/s 698 mmHg 92%
    22:00 +20°C° 0 mm 1 m/s 698 mmHg 93%
    23:00 +20°C° 0 mm 1 m/s 698 mmHg 95%
    Mostrar mais